Saint Simons Island, GA

8:03 AM EDT on September 25, 2017 (GMT -0400)
McKinnon

Weather History for KSSI - October, 2013

Change the Weather History Date:

Tuesday, October 22, 2013

  Actual Average Record
Temperature  
Mean Temperature 72 °F 68 °F  
Max Temperature 77 °F 76 °F 89 °F (2006)
Min Temperature 66 °F 60 °F 43 °F (1976)
Degree Days  
Heating Degree Days 0 1  
Month to date heating degree days 0 12  
Since 1 July heating degree days 0 12  
Cooling Degree Days 7 5  
Month to date cooling degree days 180 156  
Year to date cooling degree days 2537 2527  
Growing Degree Days 20 (Base 50)    
Moisture  
Dew Point 66 °F    
Average Humidity 87    
Maximum Humidity 100    
Minimum Humidity 74    
Precipitation  
Precipitation 0.04 in 0.11 in 3.73 in (1959)
Month to date precipitation 1.14 3.59  
Year to date precipitation 46.97 39.46  
Snow  
Snow 0.00 in - 0.00 in ()
Month to date snowfall 0.0  
Since 1 July snowfall 0.0  
Since 1 September snowfall 0.0  
Snow Depth 0.00 in    
Sea Level Pressure  
Sea Level Pressure 29.91 in    
Wind  
Wind Speed 8 mph (NNE)    
Max Wind Speed 12 mph    
Max Gust Speed 16 mph    
Visibility 9 miles    
Events Rain    
T = Trace of Precipitation, MM = Missing Value Source: NWS Daily Summary

Daily Weather History Graph

Daily Weather History Graph

Search for Another Location

Airport or City:

Trip Planner

Search our weather history database for the weather conditions in past years. The results will help you decide how hot, cold, wet, or windy it might be!

Date:

Astronomy

Oct. 22, 2013 Rise Set
Actual Time 7:33 AM EDT 6:45 PM EDT
Civil Twilight 7:08 AM EDT 7:10 PM EDT
Nautical Twilight 6:40 AM EDT 7:38 PM EDT
Astronomical Twilight 6:12 AM EDT 8:07 PM EDT
Moon 9:35 PM EDT (10/22) 10:50 AM EDT (10/22)
Length of Visible Light 12h 01m
Length of Day
11h 12m
Waning Gibbous, 87% of the Moon is Illuminated
Oct 22
Waning Gibbous
Oct 26
Last Quarter
Nov 3
New
Nov 10
First Quarter
Nov 17
Full

Hourly Weather History & Observations

Time (EDT) Temp. Dew Point Humidity Pressure Visibility Wind Dir Wind Speed Gust Speed Precip Events Conditions
12:53 AM - - N/A% 30.01 in - North - - N/A   Unknown
1:53 AM - - N/A% 30.01 in - North - - N/A   Unknown
2:53 AM - - N/A% 30.00 in - North - - N/A   Unknown
3:53 AM - - N/A% 29.97 in - North - - N/A   Unknown
4:53 AM - - N/A% 29.96 in - North - - N/A   Unknown
5:53 AM - - N/A% 29.97 in - North - - N/A   Unknown
6:53 AM - - N/A% 29.98 in - North - - N/A   Unknown
7:53 AM - - N/A% 29.97 in - North - - N/A   Unknown
8:53 AM - - N/A% 29.97 in - North - - N/A   Unknown
9:53 AM - - N/A% 29.97 in - North - - N/A   Unknown
11:37 AM 75.2 °F 68.0 °F 78% 29.94 in 10.0 mi NE 9.2 mph - N/A   Overcast
11:53 AM 73.9 °F 68.0 °F 82% 29.94 in 10.0 mi NE 9.2 mph - N/A   Overcast
12:53 PM 73.9 °F 66.9 °F 79% 29.94 in 10.0 mi ENE 8.1 mph - N/A   Overcast
1:26 PM 77.0 °F 68.0 °F 74% 29.91 in 10.0 mi NE 6.9 mph - N/A   Mostly Cloudy
1:46 PM 75.2 °F 66.2 °F 73% 29.90 in 10.0 mi NNE 8.1 mph - N/A   Overcast
1:53 PM 75.9 °F 66.9 °F 74% 29.90 in 10.0 mi NNE 10.4 mph - N/A   Overcast
2:50 PM 75.2 °F 66.2 °F 73% 29.87 in 10.0 mi NE 9.2 mph - N/A   Scattered Clouds
2:53 PM 75.0 °F 66.9 °F 76% 29.87 in 10.0 mi NE 8.1 mph - N/A   Scattered Clouds
3:20 PM 75.2 °F 66.2 °F 73% 29.87 in 10.0 mi NE 9.2 mph - N/A   Mostly Cloudy
3:53 PM 73.9 °F 66.0 °F 76% 29.86 in 10.0 mi NNE 9.2 mph - N/A   Overcast
4:33 PM 73.4 °F 64.4 °F 73% 29.85 in 10.0 mi NE 8.1 mph - 0.00 in   Overcast
4:53 PM 73.0 °F 66.0 °F 79% 29.86 in 10.0 mi NNE 6.9 mph - 0.00 in   Overcast
5:53 PM 70.0 °F 66.9 °F 90% 29.86 in 7.0 mi North 6.9 mph - 0.01 in Rain Light Rain
6:53 PM 69.1 °F 66.9 °F 93% 29.86 in 10.0 mi North 3.5 mph - 0.02 in Rain Light Rain
7:42 PM 68.0 °F 66.2 °F 94% 29.85 in 7.0 mi North 5.8 mph - 0.01 in   Overcast
7:53 PM 68.0 °F 66.9 °F 96% 29.86 in 6.0 mi NNW 3.5 mph - 0.01 in Rain Light Rain
8:08 PM 68.0 °F 66.2 °F 94% 29.86 in 8.0 mi NNW 8.1 mph - 0.00 in Rain Light Rain
8:25 PM 66.2 °F 64.4 °F 94% 29.87 in 10.0 mi NNW 9.2 mph - 0.00 in   Overcast
8:53 PM 66.9 °F 64.9 °F 93% 29.86 in 8.0 mi North 6.9 mph - 0.00 in   Overcast
9:19 PM 66.2 °F 64.4 °F 94% 29.86 in 7.0 mi North 8.1 mph - N/A   Overcast
9:44 PM 66.2 °F 64.4 °F 94% 29.86 in 6.0 mi NNW 6.9 mph - N/A   Overcast
9:53 PM 66.0 °F 64.0 °F 93% 29.87 in 6.0 mi NNW 8.1 mph - N/A   Overcast
10:46 PM 66.2 °F 64.4 °F 94% 29.87 in 8.0 mi North 6.9 mph 16.1 mph N/A   Overcast
10:53 PM 64.9 °F 64.0 °F 97% 29.88 in 8.0 mi NNW 9.2 mph - N/A   Overcast
11:53 PM 64.0 °F 62.1 °F 93% 29.86 in 10.0 mi North 8.1 mph - 0.00 in   Overcast